Location: Saratoga Springs
(43.0831°N, 73.7850°W)
Time: 21:30:10
(UTC-04:00)

Vanguard 2 Rocket - Pass Details

Date: 20 April 2024
Orbit: 556 x 3304 km, 32.9° (Epoch: 21 May)

Event Time Altitude Azimuth Distance (km) Brightness Sun altitude
Rises 01:04:20 0° 262° (W) 6,898 11.3 -35.2°
Reaches altitude 10° 01:08:44 10° 259° (W) 6,064 10.9 -35.1°
Maximum altitude 01:28:14 61° 187° (S) 3,509 9.3 -34.7°
Drops below altitude 10° 01:44:42 10° 113° (ESE) 5,228 10.7 -34.0°
Sets 01:48:11 0° 109° (ESE) 5,940 11.0 -33.8°
